Satellite: AO-51
Catalog number: 28375
Epoch time:      04336.78192487
Element set:     122
Inclination:       98.2413 deg
RA of node:        40.8863 deg
Eccentricity:    0.0085088
Arg of perigee:   106.8320 deg
Mean anomaly:     254.2216 deg
Mean motion:   14.40416091 rev/day
Decay rate:       2.16e-06 rev/day^2
Epoch rev:            2219
Checksum:              288

/EX
SB KEPS @ AMSAT  $ORB04337.W
Orbital Elements  04337.WEATHER

HR AMSAT ORBITAL ELEMENTS FOR WEATHER SATELLITES
FROM WA5QGD FORT WORTH,TX December 2, 2004
SEND SUBSCRIBE/UNSUBSCRIBE TO majordomo@amsat.org ONLY
BID: ORB04337.W
TO ALL RADIO AMATEURS BT

Satellite: NOAA-10
Catalog number: 16969
Epoch time:      04337.54372568
Element set:     496
Inclination:       98.7612 deg
RA of node:       336.8731 deg
Eccentricity:    0.0012383
Arg of perigee:   349.6932 deg
Mean anomaly:      10.4001 deg
Mean motion:   14.27228726 rev/day
Decay rate:        9.3e-07 rev/day^2
Epoch rev:           94704
Checksum:              319

Satellite: NOAA-11
Catalog number: 19531
Epoch time:      04336.76422837
Element set:     352
Inclination:       98.8578 deg
RA of node:        59.4822 deg
Eccentricity:    0.0012359
Arg of perigee:   146.7224 deg
Mean anomaly:     213.4711 deg
Mean motion:   14.14741547 rev/day
Decay rate:       -5.1e-07 rev/day^2
Epoch rev:           83501
Checksum:              299

Satellite: NOAA-12
Catalog number: 21263
Epoch time:      04337.42799885
Element set:     841
Inclination:       98.6853 deg
RA of node:       323.5029 deg
Eccentricity:    0.0012007
Arg of perigee:   281.6737 deg
Mean anomaly:      78.3099 deg
Mean motion:   14.25435694 rev/day
Decay rate:       2.59e-06 rev/day^2
Epoch rev:           70421
Checksum:              325

Satellite: MET-3/5
Catalog number: 21655
Epoch time:      04337.11130515
Element set:     683
Inclination:       82.5535 deg
RA of node:       297.8748 deg
Eccentricity:    0.0013592
Arg of perigee:    11.6127 deg
Mean anomaly:     348.5313 deg
Mean motion:   13.16995576 rev/day
Decay rate:        5.1e-07 rev/day^2
Epoch rev:           63937
Checksum:              313

Satellite: MET-2/21
Catalog number: 22782
Epoch time:      04336.62846055
Element set:      69
Inclination:       82.5519 deg
RA of node:        57.7016 deg
Eccentricity:    0.0021410
Arg of perigee:   320.4775 deg
Mean anomaly:      39.4823 deg
Mean motion:   13.83576381 rev/day
Decay rate:        9.3e-07 rev/day^2
Epoch rev:           56825
Checksum:              308

Satellite: OKEAN-4
Catalog number: 23317
Epoch time:      04337.81710794
Element set:     487
Inclination:       82.5400 deg
RA of node:        80.4633 deg
Eccentricity:    0.0023895
Arg of perigee:    64.8710 deg
Mean anomaly:     295.4971 deg
Mean motion:   14.81991159 rev/day
Decay rate:       9.06e-06 rev/day^2
Epoch rev:           54682
Checksum:              324

Satellite: NOAA-14
Catalog number: 23455
Epoch time:      04337.36968665
Element set:     375
Inclination:       99.1189 deg
RA of node:        16.2132 deg
Eccentricity:    0.0009500
Arg of perigee:   189.9877 deg
Mean anomaly:     170.1078 deg
Mean motion:   14.13516523 rev/day
Decay rate:       3.96e-06 rev/day^2
Epoch rev:           51169
Checksum:              325

Satellite: SICH-1
Catalog number: 23657
Epoch time:      04337.84128002
Element set:     290
Inclination:       82.5300 deg
RA of node:       221.2487 deg
Eccentricity:    0.0025514
Arg of perigee:    49.8798 deg
Mean anomaly:     310.4631 deg
Mean motion:   14.81014613 rev/day
Decay rate:       8.02e-06 rev/day^2
Epoch rev:           49889
Checksum:              288

Satellite: NOAA-15
Catalog number: 25338
Epoch time:      04337.39711268
Element set:     822
Inclination:       98.5170 deg
RA of node:       345.7063 deg
Eccentricity:    0.0010025
Arg of perigee:   209.8907 deg
Mean anomaly:     150.1701 deg
Mean motion:   14.24471980 rev/day
Decay rate:       1.20e-06 rev/day^2
Epoch rev:           34073
Checksum:              279

Satellite: RESURS
Catalog number: 25394
Epoch time:      04337.89981244
Element set:     961
Inclination:       98.5647 deg
RA of node:        46.4656 deg
Eccentricity:    0.0001945
Arg of perigee:    40.3217 deg
Mean anomaly:     319.8107 deg
Mean motion:   14.24038580 rev/day
Decay rate:        7.4e-07 rev/day^2
Epoch rev:           33251
Checksum:              306

Satellite: FENGYUN1
Catalog number: 25730
Epoch time:      04335.55282433
Element set:    0293
Inclination:      098.6053 deg
RA of node:       339.3209 deg
Eccentricity:    0.0013584
Arg of perigee:   308.9629 deg
Mean anomaly:     051.0332 deg
Mean motion:   14.11784867 rev/day
Decay rate:       -4.2e-07 rev/day^2
Epoch rev:           28648
Checksum:              303

Satellite: OKEAN-0
Catalog number: 25860
Epoch time:      04337.80954931
Element set:     294
Inclination:       97.7784 deg
RA of node:         6.1290 deg
Eccentricity:    0.0002021
Arg of perigee:   105.2178 deg
Mean anomaly:     254.9245 deg
Mean motion:   14.73164157 rev/day
Decay rate:       3.84e-06 rev/day^2
Epoch rev:           28909
Checksum:              304

Satellite: NOAA-16
Catalog number: 26536
Epoch time:      04337.39751884
Element set:     127
Inclination:       98.9879 deg
RA of node:       289.0061 deg
Eccentricity:    0.0009772
Arg of perigee:   262.6064 deg
Mean anomaly:      97.3998 deg
Mean motion:   14.12182151 rev/day
Decay rate:        2.1e-07 rev/day^2
Epoch rev:           21628
Checksum:              332

